TimeCST,TemperatureF,Dew PointF,Humidity,Sea Level PressureIn,VisibilityMPH,Wind Direction,Wind SpeedMPH,Gust SpeedMPH,PrecipitationIn,Events,Conditions,WindDirDegrees,DateUTC
12:51 AM,42.1,36.0,79,30.31,10.0,Calm,Calm,-,N/A,,Scattered Clouds,0,2012-12-05 06:51:00
1:51 AM,39.9,34.0,79,30.32,10.0,WSW,3.5,-,N/A,,Mostly Cloudy,240,2012-12-05 07:51:00
2:51 AM,39.9,35.1,83,30.34,10.0,Calm,Calm,-,N/A,,Scattered Clouds,0,2012-12-05 08:51:00
3:51 AM,37.9,33.1,83,30.35,10.0,West,3.5,-,N/A,,Scattered Clouds,280,2012-12-05 09:51:00
4:51 AM,39.0,33.1,79,30.35,10.0,Calm,Calm,-,N/A,,Partly Cloudy,0,2012-12-05 10:51:00
5:51 AM,37.0,33.1,86,30.37,10.0,Calm,Calm,-,N/A,,Scattered Clouds,0,2012-12-05 11:51:00
6:51 AM,37.9,33.1,83,30.39,10.0,Calm,Calm,-,N/A,,Mostly Cloudy,0,2012-12-05 12:51:00
8:51 AM,44.1,34.0,68,30.40,10.0,Calm,Calm,-,N/A,,Partly Cloudy,0,2012-12-05 14:51:00
9:51 AM,48.0,34.0,58,30.40,10.0,East,4.6,-,N/A,,Partly Cloudy,100,2012-12-05 15:51:00
10:51 AM,50.0,34.0,54,30.38,10.0,ESE,8.1,-,N/A,,Mostly Cloudy,120,2012-12-05 16:51:00
11:51 AM,51.1,34.0,52,30.36,10.0,East,4.6,-,N/A,,Mostly Cloudy,100,2012-12-05 17:51:00
12:51 PM,53.1,34.0,48,30.33,10.0,East,4.6,-,N/A,,Mostly Cloudy,100,2012-12-05 18:51:00
1:51 PM,54.0,34.0,47,30.31,10.0,ESE,4.6,-,N/A,,Mostly Cloudy,120,2012-12-05 19:51:00
2:51 PM,54.0,35.1,49,30.28,10.0,ESE,8.1,-,N/A,,Mostly Cloudy,120,2012-12-05 20:51:00
3:51 PM,53.1,35.1,50,30.27,10.0,East,8.1,-,N/A,,Mostly Cloudy,100,2012-12-05 21:51:00
4:51 PM,48.0,34.0,58,30.27,10.0,East,8.1,-,N/A,,Mostly Cloudy,80,2012-12-05 22:51:00
5:51 PM,46.9,35.1,63,30.27,10.0,ESE,6.9,-,N/A,,Mostly Cloudy,110,2012-12-05 23:51:00
6:51 PM,45.0,35.1,68,30.25,10.0,ESE,5.8,-,N/A,,Scattered Clouds,110,2012-12-06 00:51:00
7:51 PM,43.0,35.1,74,30.25,10.0,ESE,8.1,-,N/A,,Partly Cloudy,120,2012-12-06 01:51:00
8:51 PM,42.1,34.0,73,30.22,10.0,ESE,8.1,-,N/A,,Partly Cloudy,120,2012-12-06 02:51:00
9:51 PM,43.0,34.0,71,30.20,10.0,ESE,10.4,-,N/A,,Partly Cloudy,120,2012-12-06 03:51:00
10:51 PM,42.1,33.1,70,30.19,10.0,ESE,4.6,-,N/A,,Scattered Clouds,110,2012-12-06 04:51:00
11:51 PM,37.9,32.0,79,30.17,10.0,ESE,6.9,-,N/A,,Partly Cloudy,120,2012-12-06 05:51:00